Location: Poughquag
(41.6090°N, 73.6820°W)
Time: 08:26:07
(UTC-05:00)

DIWATA 2B (PO-101) - Pass Details

Date: 18 November 2025
Orbit: 563 x 574 km, 98.1° (Epoch: 07 December)

Event Time Altitude Azimuth Distance (km) Brightness Sun altitude
Exits shadow 16:59:54 - 39° (NE) 2,431 ? -5.6°
Reaches altitude 10° 17:01:56 10° 58° (ENE) 1,862 ? -6.0°
Maximum altitude 17:04:12 15° 92° (E) 1,583 ? -6.4°
Drops below altitude 10° 17:06:27 10° 127° (SE) 1,854 ? -6.8°
Sets 17:09:26 0° 152° (SSE) 2,746 ? -7.3°
